This demonstration page uses our WeatherBlox Daily Observations layout. Learn more.

Left ArrowRight Arrow

34.74481, -87.66753

Hourly Observations for April 26, 2021

Temp ( °F °C ) Dew Point ( °F °C ) Humidity (%) Winds ( mph kmh ) Pressure ( in mb ) Visibility ( mi km ) Precip ( " mm )
12:53 am 00:53 Clear 52 11.1 47 8.3 83 83 Calm 30.05 1018 9 14 0.00 0.00
1:53 am 01:53 Clear 50 10 46 7.8 86 86 Calm 30.04 1017 7 11 0.00 0.00
2:53 am 02:53 Clear 51 10.6 46 7.8 83 83 Calm 30.03 1017 7 11 0.00 0.00
3:53 am 03:53 Hazy 50 10 45 7.2 83 83 Calm 30.04 1017 5 8 0.00 0.00
4:53 am 04:53 Hazy 50 10 45 7.2 83 83 Calm 30.05 1018 6 10 0.00 0.00
5:34 am 05:34 Hazy 48 8.9 43 6.1 83 83 Calm 30.07 1018 2 2 0.00 0.00
5:45 am 05:45 Clear with Mist and Fog 48 8.9 44 6.7 86 86 SE 3 6 30.07 1018 4 6 0.00 0.00
5:53 am 05:53 Hazy 47 8.3 42 5.6 83 83 Calm 30.06 1018 6 10 0.00 0.00
6:07 am 06:07 Mostly Cloudy with Haze 46 7.8 41 5 83 83 Calm 30.08 1019 1 2 0.00 0.00
6:13 am 06:13 Mostly Cloudy with Haze 47 8.3 42 5.6 83 83 Calm 30.08 1019 0 0 0.00 0.00
6:17 am 06:17 Sunny with Fog 47 8.3 43 6.1 86 86 Calm 30.08 1019 1 1 0.00 0.00
6:31 am 06:31 Hazy 49 9.4 44 6.7 83 83 Calm 30.08 1019 2 3 0.00 0.00
6:38 am 06:38 Hazy 50 10 45 7.2 83 83 Calm 30.09 1019 4 6 0.00 0.00
6:53 am 06:53 Sunny with Mist and Fog 51 10.6 47 8.3 86 86 Calm 30.08 1019 6 10 0.00 0.00
7:53 am 07:53 Sunny 56 13.3 50 10 81 81 SE 3 6 30.09 1019 8 13 0.00 0.00
8:53 am 08:53 Sunny 61 16.1 50 10 67 67 Calm 30.11 1020 10 16 0.00 0.00
9:53 am 09:53 Sunny 67 19.4 50 10 55 55 VRB 3 6 30.12 1020 10 16 0.00 0.00
10:53 am 10:53 Sunny 71 21.7 49 9.4 46 46 SE 8 13 30.12 1020 10 16 0.00 0.00
11:53 am 11:53 Sunny 73 22.8 47 8.3 40 40 Calm 30.11 1020 10 16 0.00 0.00
12:53 pm 12:53 Sunny 75 23.9 49 9.4 40 40 Calm 30.07 1018 10 16 0.00 0.00
1:53 pm 13:53 Sunny 77 25 48 8.9 36 36 S 5 7 30.05 1018 10 16 0.00 0.00
2:53 pm 14:53 Sunny 80 26.7 49 9.4 34 34 SSE 7 11 30.03 1017 10 16 0.00 0.00
3:53 pm 15:53 Sunny 80 26.7 49 9.4 34 34 ESE 7 11 30.01 1016 10 16 0.00 0.00
4:53 pm 16:53 Sunny 81 27.2 50 10 34 34 SSE 8 13 29.99 1016 10 16 0.00 0.00
5:53 pm 17:53 Sunny 79 26.1 51 10.6 38 38 SE 6 9 29.98 1015 10 16 0.00 0.00
6:53 pm 18:53 Sunny 77 25 51 10.6 40 40 S 6 9 29.97 1015 10 16 0.00 0.00
7:53 pm 19:53 Clear 71 21.7 49 9.4 46 46 SSE 6 9 29.98 1015 10 16 0.00 0.00
8:53 pm 20:53 Clear 67 19.4 50 10 55 55 SSE 3 6 29.99 1016 10 16 0.00 0.00
9:53 pm 21:53 Clear 67 19.4 50 10 55 55 SSE 5 7 30.00 1016 10 16 0.00 0.00
10:53 pm 22:53 Clear 65 18.3 50 10 59 59 SSE 6 9 30.01 1016 10 16 0.00 0.00
11:53 pm 23:53 Clear 65 18.3 50 10 59 59 SSE 5 7 30.02 1017 10 16 0.00 0.00

Powered by AerisWeather